Regional Weather Roundup
Issued by NWS

Home | Current Version | Previous Version | Text Only | Print | Product List | Glossary On
Versions: 1 2 3 4 5 6 7 8 9 10 11 12 13 14 15 16 17 18 19 20 21 22 23 24 25 26 27 28 29 30 31 32 33 34 35 36 37 38 39 40 41 42 43 44 45 46 47 48 49 50
000
ASUS43 KLSX 251507
RWRMO

WEATHER SUMMARY FOR MISSOURI
NATIONAL WEATHER SERVICE SPRINGFIELD MO
1000 AM CDT MON JUL 25 2016

NOTE: "FAIR" INDICATES FEW OR NO CLOUDS BELOW 12,000 FEET WITH NO
       SIGNIFICANT WEATHER AND/OR OBSTRUCTIONS TO VISIBILITY.
       CURRENT SKY AND/OR WEATHER CONDITIONS ARE NOT AVAILABLE FOR
       CHILLICOTHE AND FARMINGTON.

MOZ001>031-035>038-043-044-053-054-251600-
...NORTHERN AND WESTERN MISSOURI...

CITY           SKY/WX    TMP DP  RH WIND       PRES   REMARKS
KANSAS CTY INT CLOUDY    75  67  76 NE7       30.10R
KANSAS C DTWN  CLOUDY    77  68  73 NE5       30.09R
LEE`S SUMMIT   CLOUDY    75  69  81 N5        30.10R
ST JOSEPH      CLOUDY    75  65  70 NE6       30.10R
CHILLICOTHE      N/A     77  67  71 N5        30.09R
KIRKSVILLE     CLOUDY    78  68  71 N12       30.07S

$$
MOZ066>068-077>081-088>096-101>105-251600-
...SOUTHWEST MISSOURI...

CITY           SKY/WX    TMP DP  RH WIND       PRES   REMARKS
SPRINGFIELD    RAIN      72  69  90 SE10      30.09F
JOPLIN         CLOUDY    76  71  85 NW9       30.13R THUNDER
BRANSON        CLOUDY    75  73  94 NE10G18   30.10R

$$
MOZ032>034-039>042-045>050-055>058-069>072-251600-
...CENTRAL MISSOURI...

CITY           SKY/WX    TMP DP  RH WIND       PRES   REMARKS
COLUMBIA       CLOUDY    75  73  93 W8        30.07R
JEFFERSON CITY CLOUDY    74  71  91 NW3       30.04R
ROLLA          CLOUDY    75  71  87 S6        30.04S
SEDALIA        CLOUDY    77  73  87 NW3       30.09R
OSAGE BEACH    RAIN      73  72  96 SW9       30.06R

$$
MOZ051-052-059>065-251600-
...EAST CENTRAL MISSOURI...

CITY           SKY/WX    TMP DP  RH WIND       PRES   REMARKS
ST LOUIS INTL  CLOUDY    79  72  79 NW6       30.04R
SPIRIT OF STL  CLOUDY    77  73  87 W5        30.02R
ST CHARLES     CLOUDY    78  73  84 W3        30.02S

$$
MOZ072>076-082>087-097>100-106>115-251600-
...SOUTH CENTRAL AND SOUTHEAST MISSOURI...

CITY           SKY/WX    TMP DP  RH WIND       PRES   REMARKS
CAPE GIRARDEAU PTSUNNY   84  77  79 S8        30.00R HX  94
FARMINGTON     CLOUDY    78  74  87 W3        30.04R
POPLAR BLUFF   PTSUNNY   84  77  79 S5        30.00S HX  94
WEST PLAINS    CLOUDY    75  71  87 N5        30.09R

$$


USA.gov is the U.S. government's official web portal to all federal, state and local government web resources and services.